Regional Weather Roundup
Issued by NWS

Home | Current Version | Previous Version | Graphics & Text | Print | Product List | Glossary On
Versions: 1 2 3 4 5 6 7 8 9 10 11 12 13 14 15 16 17 18 19 20 21 22 23 24 25 26 27 28 29 30 31 32 33 34 35 36 37 38 39 40 41 42 43 44 45 46 47 48 49 50
000
ASUS43 KDTX 272201
RWRMI
MICHIGAN HOURLY REGIONAL WEATHER ROUNDUP
NATIONAL WEATHER SERVICE DETROIT/PONTIAC MI
500 PM EST SAT DEC 27 2014

NOTE: "FAIR" INDICATES FEW OR NO CLOUDS BELOW 12,000 FEET WITH NO
SIGNIFICANT WEATHER AND/OR OBSTRUCTION TO VISIBILITY.

MIZ047>049-052>055-059>063-066>070-074>076-081>083-272300-
SOUTHEAST LOWER MICHIGAN

CITY           SKY/WX    TMP DP  RH WIND       PRES   REMARKS
ADRIAN         CLOUDY    46  44  93 SW12G21   29.99R
ALMA           CLOUDY    44  40  88 SW22G32   29.89R
ANN ARBOR      CLOUDY    47  45  93 SW15      29.95R
BAD AXE        CLOUDY    48  46  90 SW17G28   29.82F
CARO           CLOUDY    49  45  86 SW17G24   29.84S
DETROIT CITY   CLOUDY    50  44  80 SW21      29.94S
DETROIT        CLOUDY    47  45  93 S20       29.96R
FLINT          CLOUDY    51  44  77 SW16G29   29.90R
GROSSE ILE     CLOUDY    48  45  87 SW15G26   29.97R
HILLSDALE      CLOUDY    47  47  98 W15       29.97R
HOWELL         CLOUDY    47  45  91 SW16G23   29.91R

CITY           SKY/WX    TMP DP  RH WIND       PRES   REMARKS
JACKSON        CLOUDY    48  44  86 SW14      29.93R
LAMBERTVILLE   CLOUDY    48  43  81 SW9G18    29.99R
LANSING        LGT RAIN  48  44  86 SW18G26   29.91R
LAPEER         CLOUDY    48  43  83 SW16      29.87F
MASON          LGT RAIN  47  43  86 SW14G23   29.91R
MONROE         CLOUDY    48  45  87 SW18      29.97R
MT. CLEMENS    CLOUDY    48  44  87 SW13G21   29.90R
PONTIAC        CLOUDY    47  44  90 SW12G17   29.90S
PORT HOPE        N/A     50  43  77 SW14G28   29.77F
PORT HURON     CLOUDY    46  45  93 SW9       29.91S
TRI CITIES     CLOUDY    50  44  80 SW24G32   29.84S
TROY           CLOUDY    49  45  87 SW12G18   29.94R
SAGINAW HB     CLOUDY    48  46  93 SW17G23   29.84R
$$
MIZ043>046-050>051-056>058-064>065-071>073-077>080-272300-
SOUTHWEST LOWER MICHIGAN

CITY           SKY/WX    TMP DP  RH WIND       PRES   REMARKS
BATTLE CREEK   LGT RAIN  44  40  85 W25G33    29.97R
BENTON HARBOR  CLOUDY    38  33  82 W21G33    30.02R WCI  28
BIG RAPIDS     CLOUDY    39  36  88 W15G35    29.87R WCI  31
COLDWATER      LGT RAIN  47  46  96 SW15      29.97R
FREMONT        CLOUDY    38  33  83 W18G26    29.93R WCI  28
HOLLAND        CLOUDY    40  33  76 W22       30.00R WCI  30
GRAND RAPIDS   CLOUDY    39  37  92 W23G36    29.95R WCI  28
IONIA          LGT RAIN  42  37  83 W30G43    29.92R
KALAMAZOO      LGT RAIN  42  37  82 W18G29    29.99R
LUDINGTON      CLOUDY    37  32  81 W13G23    29.91R WCI  29
MARSHALL       LGT RAIN  47  44  90 MISG      29.93R
MOUNT PLEASANT CLOUDY    44  39  81 SW16G32   29.86R
MUSKEGON       CLOUDY    39  32  76 W18G26    29.98R WCI  30
SOUTH HAVEN    CLOUDY    39  33  79 W16G25    30.02R WCI  31
$$
MIZ016>042-272300-
NORTHERN LOWER MICHIGAN

CITY           SKY/WX    TMP DP  RH WIND       PRES   REMARKS
ALPENA         CLOUDY    48  40  73 SW16G33   29.72R
BEAVER ISLAND  FLURRIES  33  32  96 NW12      29.81R WCI  24
BELLAIRE       CLOUDY    39  36  88 SW12G21   29.81R FOG     WCI  32
CADILLAC       CLOUDY    38  35  90 SW14G26   29.81R WCI  29
CHARLEVOIX     LGT RAIN  34  33  96 NW16G23   29.83R WCI  24
FRANKFORT      CLOUDY    36  34  93 W13G20    29.86R WCI  27
GAYLORD        CLOUDY    38  35  89 SW28G36   29.76R WCI  26
GRAYLING       CLOUDY    40  38  94 W17G25    29.79R WCI  31
HARBOR SPRINGS LGT RAIN  35  33  92 NW12G18   29.77R WCI  27
HOUGHTON LAKE  CLOUDY    43  36  76 W20G31    29.78R
MANISTEE       CLOUDY    37  30  75 W16G28    29.89R WCI  28
OSCODA         CLOUDY    48  43  82 SW16G28   29.75R
PELLSTON       CLOUDY    34  33  96 NW13      29.77R FOG     WCI  25
ROGERS CITY    CLOUDY    43  41  93 W16G26    29.73R
TRAVERSE CITY  LGT RAIN  39  36  89 W15G30    29.82R WCI  31
$$
MIZ007>008-015-272300-
EASTERN UPPER MICHIGAN

CITY           SKY/WX    TMP DP  RH WIND       PRES   REMARKS
KINROSS        CLOUDY    34  32  93 NW22G29   29.71R WCI  22
MACKINAC ISLAN CLOUDY    34  34 100 NW13G20   29.75R WCI  25
NEWBERRY       CLOUDY    31  30  96 NW13G18   29.79R FOG     WCI  21
S. S. MARIE    LGT RAIN  33  30  88 NW21G29   29.70R WCI  21
MUNISING         N/A     33  27  78 N15       29.86R WCI  23
$$
MIZ004>006-011>014-085-272300-
CENTRAL UPPER MICHIGAN

CITY           SKY/WX    TMP DP  RH WIND       PRES   REMARKS
MANISTIQUE     FLURRIES  32  31  96 NW15G22   29.81R WCI  22
ESCANABA       CLOUDY    34  28  80 NW7       29.87R WCI  28
MENOMINEE      CLOUDY    34  30  86 NW6       29.89R WCI  29
SAWYER-GWINN   CLOUDY    28  27  93 N8        29.85R FOG     WCI  20
$$
MIZ001>003-009>011-084-272300-
WESTERN UPPER MICHIGAN

CITY           SKY/WX    TMP DP  RH WIND       PRES   REMARKS
IRON MOUNTAIN    N/A     30  26  85 NW10      29.88R WCI  21
HOUGHTON       FLURRIES  26  22  84 NW10      29.89R WCI  16
COPPER HARBOR    N/A     30  22  72 N17       29.89R WCI  18
IRONWOOD       CLOUDY    23  23 100 W9        29.93R WCI  13
$$

ABBREVIATIONS USED IN REMARKS
   TC - TEMPERATURE IN CELSIUS
  WCI - WIND CHILL INDEX
   HX - HEAT INDEX
  VSB - VISIBILITY




USA.gov is the U.S. government's official web portal to all federal, state and local government web resources and services.